Smyrna, TN

5:51 PM CST on December 09, 2019 (GMT -0600)
Smyrna

Weather History for KMQY - October, 2019

Change the Weather History Date:

Saturday, October 19, 2019

  Actual Average Record
Temperature  
Mean Temperature 54 °F -  
Max Temperature 66 °F 67 °F 93 °F (2005)
Min Temperature 41 °F 49 °F 31 °F (2015)
Degree Days  
Heating Degree Days 12    
Growing Degree Days 4 (Base 50)    
Moisture  
Dew Point 52 °F    
Average Humidity 86    
Maximum Humidity 97    
Minimum Humidity 60    
Precipitation  
Precipitation 0.00 in - - ()
Sea Level Pressure  
Sea Level Pressure 29.89 in    
Wind  
Wind Speed 2 mph (ESE)    
Max Wind Speed 10 mph    
Max Gust Speed -    
Visibility 10 miles    
Events Rain    
Averages and records for this station are not official NWS values.
T = Trace of Precipitation, MM = Missing Value Source: NWS Daily Summary

Daily Weather History Graph

Daily Weather History Graph

Search for Another Location

Airport or City:

Astronomy

Oct. 19, 2019 Rise Set
Actual Time 6:56 AM CDT 6:05 PM CDT
Civil Twilight 6:30 AM CDT 6:31 PM CDT
Nautical Twilight 6:00 AM CDT 7:01 PM CDT
Astronomical Twilight 5:30 AM CDT 7:30 PM CDT
Moon 10:21 PM CDT (10/19) 12:20 PM CDT (10/19)
Length of Visible Light 12h 01m
Length of Day
11h 09m
Waning Gibbous, 69% of the Moon is Illuminated
Oct 19
Waning Gibbous
Oct 21
Last Quarter
Oct 27
New
Nov 4
First Quarter
Nov 12
Full

Hourly Weather History & Observations

Time (CDT) Temp. Windchill Dew Point Humidity Pressure Visibility Wind Dir Wind Speed Gust Speed Precip Events Conditions
12:56 AM 45.0 °F - 44.1 °F 97% 29.96 in 10.0 mi Calm Calm - N/A   Clear
1:56 AM 46.0 °F - 44.1 °F 93% 29.95 in 10.0 mi Calm Calm - N/A   Clear
2:56 AM 45.0 °F - 43.0 °F 93% 29.94 in 10.0 mi Calm Calm - N/A   Clear
3:56 AM 43.0 °F - 42.1 °F 97% 29.94 in 10.0 mi Calm Calm - N/A   Clear
4:56 AM 42.1 °F - 41.0 °F 96% 29.94 in 10.0 mi Calm Calm - N/A   Clear
5:56 AM 41.0 °F 39.0 °F 39.9 °F 96% 29.94 in 10.0 mi SE 3.5 mph - N/A   Clear
6:56 AM 41.0 °F - 39.9 °F 96% 29.95 in 10.0 mi Calm Calm - N/A   Clear
7:56 AM 44.1 °F - 42.1 °F 93% 29.96 in 10.0 mi Calm Calm - N/A   Clear
8:56 AM 53.1 °F - 46.9 °F 80% 29.96 in 10.0 mi Calm Calm - N/A   Clear
9:56 AM 60.1 °F - 48.0 °F 64% 29.96 in 10.0 mi Calm Calm - N/A   Overcast
10:56 AM 63.0 °F - 50.0 °F 63% 29.95 in 10.0 mi SE 3.5 mph - N/A   Overcast
11:56 AM 64.9 °F - 51.1 °F 61% 29.94 in 10.0 mi SSE 4.6 mph - N/A   Overcast
12:56 PM 66.0 °F - 52.0 °F 60% 29.90 in 10.0 mi SE 10.4 mph - N/A   Overcast
1:36 PM 64.4 °F - 55.4 °F 73% 29.87 in 6.0 mi SE 8.1 mph - N/A   Haze
1:54 PM 62.6 °F - 57.2 °F 82% 29.87 in 4.0 mi ESE 6.9 mph - 0.00 in Rain Light Rain
1:56 PM 62.1 °F - 57.9 °F 86% 29.89 in 8.0 mi ESE 6.9 mph - 0.00 in Rain Light Rain
2:56 PM 63.0 °F - 57.9 °F 84% 29.87 in 10.0 mi SE 6.9 mph - 0.00 in   Overcast
3:56 PM 63.0 °F - 57.9 °F 84% 29.86 in 10.0 mi ESE 6.9 mph - 0.00 in Rain Light Rain
4:37 PM 62.6 °F - 59.0 °F 88% 29.83 in 10.0 mi East 4.6 mph - 0.00 in Rain Light Rain
4:45 PM 62.6 °F - 59.0 °F 88% 29.83 in 10.0 mi East 6.9 mph - 0.00 in Rain Light Rain
4:56 PM 62.1 °F - 57.0 °F 84% 29.86 in 10.0 mi East 6.9 mph - 0.00 in   Overcast
5:56 PM 60.1 °F - 57.9 °F 93% 29.86 in 10.0 mi East 6.9 mph - 0.00 in Rain Light Rain
6:20 PM 59.0 °F - 57.2 °F 94% 29.83 in 10.0 mi East 6.9 mph - 0.00 in Rain Light Rain
6:56 PM 59.0 °F - 57.0 °F 93% 29.86 in 10.0 mi East 6.9 mph - 0.00 in   Overcast
7:32 PM 59.0 °F - 55.4 °F 88% 29.83 in 10.0 mi East 5.8 mph - N/A   Overcast
7:56 PM 57.9 °F - 55.9 °F 93% 29.86 in 10.0 mi SE 3.5 mph - N/A   Overcast
8:52 PM 59.0 °F - 55.4 °F 88% 29.84 in 8.0 mi Calm Calm - N/A   Overcast
8:56 PM 59.0 °F - 55.9 °F 90% 29.86 in 8.0 mi Calm Calm - N/A   Overcast
9:56 PM 59.0 °F - 55.9 °F 90% 29.86 in 10.0 mi Calm Calm - N/A   Overcast
10:56 PM 59.0 °F - 55.9 °F 90% 29.86 in 10.0 mi Calm Calm - N/A   Overcast
11:56 PM 57.9 °F - 55.9 °F 93% 29.85 in 10.0 mi Calm Calm - N/A   Overcast